{"data":{"norad_id":47896,"epoch":"2026-05-25T02:25:15.454848Z","epoch_age_seconds":63445,"freshness":"FRESH","line1":"1 47896U 21021AN  26145.10087332  .00000490  00000+0  27534-4 0  9999","line2":"2 47896  53.1583 285.5719 0001118  87.3474 272.7656 15.31705154287725","mean_motion":15.31705154,"eccentricity":0.0001118,"inclination_deg":53.1583,"raan_deg":285.5719,"arg_perigee_deg":87.3474,"mean_anomaly_deg":272.7656,"bstar":2.7534e-5,"rev_number":28772,"period_min":94.012871618241,"perigee_km":469.95892873252,"apogee_km":471.49033419332,"semimajor_km":6848.8616314629,"source":"CELESTRAK","updated_at":"2026-05-25T13:38:16.612316Z"}}